Fort Knox, KY

6:45 PM EDT on March 28, 2017 (GMT -0400)
Godman Army Air Field

Weather History for KFTK - November, 2013

Change the Weather History Date:

Wednesday, November 13, 2013

  Actual Average Record
Temperature  
Mean Temperature 32 °F -  
Max Temperature 42 °F 53 °F 73 °F (1999)
Min Temperature 21 °F 35 °F 21 °F (2013)
Degree Days  
Heating Degree Days 34    
Moisture  
Dew Point 20 °F    
Average Humidity 66    
Maximum Humidity 92    
Minimum Humidity 39    
Precipitation  
Precipitation 0.00 in - - ()
Sea Level Pressure  
Sea Level Pressure 30.59 in    
Wind  
Wind Speed 4 mph (SW)    
Max Wind Speed 8 mph    
Max Gust Speed -    
Visibility 10 miles    
Events      
Averages and records for this station are not official NWS values.
T = Trace of Precipitation, MM = Missing Value Source: NWS Daily Summary

Daily Weather History Graph

Daily Weather History Graph

Search for Another Location

Airport or City:

Trip Planner

Search our weather history database for the weather conditions in past years. The results will help you decide how hot, cold, wet, or windy it might be!

Date:

Astronomy

Nov. 13, 2013 Rise Set
Actual Time 7:22 AM EST 5:33 PM EST
Civil Twilight 6:54 AM EST 6:01 PM EST
Nautical Twilight 6:22 AM EST 6:33 PM EST
Astronomical Twilight 5:51 AM EST 7:04 PM EST
Moon 3:17 PM EST (11/13) 3:18 AM EST (11/13)
Length of Visible Light 11h 06m
Length of Day
10h 11m
Waxing Gibbous, 84% of the Moon is Illuminated
Nov 13
Waxing Gibbous
Nov 17
Full
Nov 25
Last Quarter
Dec 2
New
Dec 9
First Quarter

Hourly Weather History & Observations

Time (EST) Temp. Windchill Dew Point Humidity Pressure Visibility Wind Dir Wind Speed Gust Speed Precip Events Conditions
12:58 AM 25.2 °F 18.3 °F 19.8 °F 80% 30.66 in 10.0 mi North 5.8 mph - N/A   Clear
1:58 AM 23.9 °F - 19.2 °F 82% 30.63 in 10.0 mi NW 1.2 mph - N/A   Clear
2:58 AM 21.6 °F - 18.9 °F 89% 30.65 in 10.0 mi NW 2.3 mph - N/A   Clear
3:58 AM 21.2 °F 16.4 °F 19.2 °F 92% 30.66 in 10.0 mi NW 3.5 mph - N/A   Clear
4:58 AM 21.4 °F - 19.0 °F 91% 30.67 in 10.0 mi NNW 2.3 mph - N/A   Clear
5:58 AM 23.9 °F 15.8 °F 19.8 °F 84% 30.67 in 10.0 mi NNW 6.9 mph - N/A   Clear
6:58 AM 22.8 °F - 19.2 °F 86% 30.68 in 10.0 mi SW 1.2 mph - N/A   Clear
7:58 AM 21.6 °F - 19.4 °F 91% 30.69 in 10.0 mi Calm Calm - N/A   Clear
8:58 AM 26.6 °F - 23.2 °F 87% 30.70 in 10.0 mi NNW 2.3 mph - N/A   Clear
9:58 AM 31.6 °F - 22.6 °F 69% 30.70 in 10.0 mi SE 2.3 mph - N/A   Clear
10:58 AM 35.1 °F 32.2 °F 22.5 °F 60% 30.69 in 10.0 mi South 3.5 mph - N/A   Clear
11:58 AM 36.9 °F 30.7 °F 21.4 °F 54% 30.66 in 10.0 mi SW 8.1 mph - N/A   Scattered Clouds
12:58 PM 39.9 °F 35.8 °F 21.6 °F 48% 30.63 in 10.0 mi Variable 5.8 mph - N/A   Scattered Clouds
1:58 PM 41.2 °F 36.6 °F 20.8 °F 44% 30.59 in 10.0 mi Variable 6.9 mph - N/A   Clear
2:58 PM 42.3 °F 39.4 °F 19.2 °F 40% 30.58 in 10.0 mi SW 4.6 mph - N/A   Clear
3:44 PM 42.8 °F 41.1 °F 19.4 °F 39% 30.51 in 10.0 mi SW 3.5 mph - N/A   Clear
3:58 PM 41.7 °F 38.8 °F 18.9 °F 40% 30.54 in 10.0 mi WSW 4.6 mph - N/A   Clear
4:58 PM 40.3 °F 36.3 °F 18.3 °F 41% 30.53 in 10.0 mi SSW 5.8 mph - N/A   Clear
5:58 PM 36.1 °F - 20.7 °F 53% 30.52 in 10.0 mi South 2.3 mph - N/A   Clear
6:58 PM 34.2 °F 31.2 °F 19.6 °F 55% 30.51 in 10.0 mi South 3.5 mph - N/A   Clear
7:58 PM 31.5 °F - 19.2 °F 61% 30.50 in 10.0 mi South 2.3 mph - N/A   Clear
8:58 PM 29.3 °F 24.3 °F 19.8 °F 68% 30.50 in 10.0 mi South 4.6 mph - N/A   Clear
9:58 PM 30.4 °F 26.9 °F 19.2 °F 63% 30.48 in 10.0 mi South 3.5 mph - N/A   Clear
10:58 PM 28.4 °F 24.6 °F 19.4 °F 69% 30.46 in 7.0 mi SSW 3.5 mph - N/A   Clear
11:58 PM 30.0 °F 26.5 °F 19.4 °F 65% 30.44 in 6.0 mi South 3.5 mph - N/A   Haze